#timestamp,LO_Frequency,Hit 
1505962815.2,286047000.9,N
1505962835.0,286047002.1,N
1505962835.9,286047002.1,N
1505962855.8,286047002.1,N
1505962875.6,286047000.6,N
1505962895.4,286046996.6,N
1505962915.3,286046996.9,N
1505962935.1,286046998.6,N
1505962936.0,286046998.6,N
1505962955.8,286046999.7,N
1505962975.7,286047003.5,N
1505962995.5,286047002.3,N
1505963015.3,286046999.7,N
1505963035.1,286047000.7,N
1505963055.9,286046998.5,N
1505963075.7,286046999.9,N
1505963095.5,286047000.2,N
1505963115.4,286046998.6,N
1505963135.2,286046996.5,N
1505963155.0,286047000.6,N
1505963155.9,286047000.6,N
1505963175.8,286047001.2,N
1505963195.6,286047002.2,N
1505963215.4,286047002.7,N
1505963235.3,286047002.3,N
1505963255.1,286047004.0,N
1505963256.0,286047004.0,N
1505963275.8,286047001.3,N
1505963295.7,286047005.7,N
1505963315.5,286047006.0,N
1505963335.3,286047006.6,N
1505963355.2,286047007.3,N
1505963375.9,286047004.8,N
1505963395.7,286047006.9,N
1505963415.6,286047005.8,N
1505963435.4,286047003.8,N
1505963455.2,286047001.7,N
1505963475.0,286047001.6,N
1505963475.9,286047001.6,N
1505963495.8,286047002.7,N
1505963515.6,286047001.9,N
1505963535.4,286047002.3,N
1505963555.3,286047001.8,N
1505963575.1,286047003.0,N
1505963595.8,286047006.0,N
1505963615.7,286047006.9,N
1505963635.5,286047004.8,N
1505963655.3,286047005.6,N
1505963675.2,286047006.9,N
1505963695.9,286047007.4,P
1505963715.7,286047002.0,N
1505963735.6,286047002.4,N
1505963755.4,286047003.9,N
1505963775.2,286047006.9,P
1505963795.1,286047001.6,N
1505963796.0,286047001.6,N
1505963815.8,286047000.1,N
1505963835.6,286047002.4,N
1505963855.5,286047000.3,N
1505963875.3,286047000.8,N
1505963895.1,286047001.0,N
1505963915.9,286047000.2,N
1505963935.7,286047001.9,N
1505963955.5,286047003.5,N
1505963975.3,286047004.4,N
1505963995.2,286047002.9,N
1505964015.0,286047003.0,N
1505964015.9,286047003.0,N
1505964035.7,286047004.1,N
1505964055.6,286047003.8,N
1505964075.4,286047003.2,N
1505964095.2,286047004.3,N
1505964115.1,286047001.3,N
1505964116.0,286047001.3,N
1505964135.8,286047008.8,P
1505964155.6,286047003.3,N
1505964175.5,286047002.1,N
1505964195.3,286047002.6,N
1505964215.1,286046998.1,N
1505964235.9,286046998.9,N
1505964255.7,286046997.0,N
1505964275.5,286046998.5,N
1505964295.4,286046999.5,N
1505964315.2,286046996.8,N
1505964335.0,286046996.5,N
1505964335.9,286046996.5,N
1505964355.8,286046997.2,N
1505964375.6,286046996.9,N
1505964395.4,286046997.3,N
1505964415.3,286046997.5,N
1505964435.1,286046999.0,N
1505964436.0,286046999.0,N
1505964455.8,286047000.8,N
1505964475.7,286047002.4,N
1505964495.5,286047002.5,N
1505964515.3,286047002.3,N
1505964535.1,286046999.8,N
1505964555.9,286046998.5,N
1505964575.7,286047000.2,N
1505964595.5,286047001.6,N
1505964615.4,286047001.6,N
1505964635.2,286047001.2,N
1505964655.0,286047004.0,N
1505964655.9,286047004.0,N
1505964675.8,286046998.4,N
1505964695.6,286046998.6,N
1505964715.4,286047000.9,N
1505964735.3,286046998.1,N
1505964755.1,286047000.8,N
1505964756.0,286047000.8,N
1505964775.8,286047000.8,N
1505964795.7,286046998.5,N
1505964815.5,286046998.3,N
1505964835.3,286047001.9,N
1505964855.1,286047002.4,N
1505964875.9,286047002.4,N
1505964895.7,286046998.4,N
1505964915.5,286047000.5,N
1505964935.4,286047000.3,N
1505964955.2,286046998.4,N
1505964975.0,286046999.2,N
1505964975.9,286046999.2,N
1505964995.8,286046999.1,N
1505965015.6,286046998.3,N
1505965035.4,286046999.5,N
1505965055.3,286046996.6,N
1505965075.1,286046999.0,N
1505965076.0,286046999.0,N
1505965095.8,286046997.6,N
1505965115.7,286046996.7,N
1505965135.5,286046996.8,N
1505965155.3,286046995.4,N
1505965175.2,286046997.8,N
1505965195.9,286046998.3,N
1505965215.7,286047002.4,N
1505965235.5,286047005.0,N
1505965255.4,286047003.0,N
1505965275.2,286047000.0,N
1505965295.0,286047000.9,N
1505965295.9,286047000.9,N
1505965315.8,286047003.1,N
1505965335.6,286047007.4,P
1505965355.4,286047003.1,N
1505965375.3,286047000.1,N
1505965395.1,286047002.2,N
1505965415.8,286047002.8,N
1505965435.7,286047002.7,N
1505965455.5,286047001.4,N
1505965475.3,286047002.7,N
1505965495.2,286046998.1,N
1505965515.9,286046999.9,N
1505965535.7,286047002.6,N
1505965555.6,286047000.3,N
1505965575.4,286046999.1,N
1505965595.2,286046999.2,N
1505965615.1,286046998.3,N
1505965616.0,286046998.3,N
1505965635.8,286046999.4,N
1505965655.6,286046998.1,N
1505965675.4,286047002.6,N
1505965695.3,286047004.8,N
1505965715.1,286047004.3,N
1505965735.8,286047000.7,N
1505965755.7,286047001.1,N
1505965775.5,286047002.5,N
1505965795.3,286047004.3,N
1505965815.2,286047004.0,N
1505965835.9,286047002.2,N
1505965855.7,286047000.2,N
1505965875.6,286047002.6,N
1505965895.4,286047003.3,N
1505965915.2,286047005.7,N
1505965935.0,286047005.7,N
1505965935.9,286047005.7,N
1505965955.8,286047003.1,N
1505965975.6,286047003.7,N
1505965995.4,286047001.7,N
1505966015.3,286047002.0,N
1505966035.1,286047003.0,N
1505966055.8,286047001.3,N
1505966075.7,286047001.7,N
1505966095.5,286047002.8,N
1505966115.3,286047001.9,N
1505966135.2,286046999.8,N
1505966155.9,286047002.2,N
1505966175.7,286047001.9,N
1505966195.6,286047002.3,N
1505966215.4,286047001.5,N
1505966235.2,286046999.7,N
1505966255.0,286047002.4,N
1505966255.9,286047002.4,N
1505966275.8,286047000.3,N
1505966295.6,286047000.9,N
1505966315.4,286047001.5,N
1505966335.3,286047004.2,N
1505966355.1,286047003.8,N
1505966375.8,286047005.1,P
1505966395.7,286047002.1,N
